RH
24 30 53 38 24 37 34 19 22 30 44 47 47 61 72 71 77 79 56 58 69 68 84 91 87 86 85 87 87 86 86 88 90 90 91 89 89 87 84 82 80 75 75 76 84 83 87 88 83
46 40 50 50 42 23 21 20 38 43 46 45 47 50 62 73 58 57 46 64 59 72 88 93 88 84 88 94 90 89 89 88 88 86 86 87 88 88 89 89 88 86 84 80 72 64 71 78 90
51 47 54 44 32 33 23 26 50 50 43 41 47 46 49 51 50 46 43 42 41 61 78 86 88 88 88 87 87 87 87 90 89 84 77 78 80 84 84 86 84 84 82 81 80 76 61 64 87
55 50 51 40 28 18 23 50 43 43 36 42 46 56 42 33 35 40 39 40 40 44 36 35 45 64 78 85 89 88 87 87 87 92 86 81 79 80 83 85 84 81 79 78 78 79 77 68 83
58 60 42 30 26 22 46 40 37 41 38 41 42 53 46 30 28 33 38 40 42 44 45 42 33 34 35 36 38 50 65 74 80 83 82 82 83 82 82 82 81 81 80 79 78 79 80 80 77
68 56 33 29 22 27 39 35 36 38 38 42 47 50 45 28 31 36 38 42 44 47 50 50 49 47 47 45 40 28 29 33 36 38 49 69 79 83 83 82 84 84 84 83 80 78 77 76 78
61 56 44 26 30 28 32 35 36 40 35 38 41 51 41 33 38 42 43 44 45 47 44 48 47 46 48 46 43 40 36 32 31 31 33 37 43 54 76 80 82 87 85 84 83 79 77 74 74
59 52 28 28 34 30 26 24 32 36 36 27 30 53 48 36 39 45 47 49 51 51 51 48 46 41 44 47 42 46 45 47 46 45 47 41 40 46 54 73 81 71 68 78 78 78 76 77 76
33 51 41 26 34 33 27 27 22 29 30 36 38 38 38 32 42 46 49 53 56 55 50 46 41 40 42 46 45 50 49 49 49 50 49 46 46 44 41 41 41 40 49 60 71 65 75 76 78
49 53 36 34 30 32 29 28 25 29 32 39 40 36 35 36 43 49 52 58 58 58 53 46 44 45 42 45 49 51 53 52 54 57 61 58 56 55 52 46 44 42 40 40 49 46 73 70 70
43 46 40 35 38 28 29 27 23 31 29 34 42 39 38 40 44 51 59 58 59 59 52 48 50 50 46 53 56 54 57 58 61 62 66 66 67 68 61 57 56 53 52 51 48 44 44 47 52
40 38 36 37 37 30 29 26 28 25 23 29 36 34 33 38 45 55 58 60 60 57 56 52 52 49 50 60 59 62 63 66 66 67 65 65 73 76 71 68 66 62 62 60 60 58 57 55 56
39 35 34 32 32 31 28 30 27 24 33 32 31 31 35 39 44 51 54 56 57 56 57 54 51 50 53 62 66 70 72 71 75 69 64 64 74 76 65 70 73 70 68 67 66 64 63 62 62
39 38 32 32 29 30 29 26 25 22 27 31 32 34 36 45 50 53 52 53 53 56 56 56 53 56 57 66 68 75 77 75 76 75 74 77 82 82 82 85 81 75 77 77 71 69 69 68 72
40 40 37 35 30 31 27 28 26 24 25 28 29 30 38 46 46 46 49 50 51 52 55 56 56 58 57 62 68 76 78 74 77 75 81 82 84 86 87 85 81 81 80 77 72 72 75 71 73
40 43 49 32 30 28 30 39 26 26 28 30 28 31 36 43 46 47 50 50 50 53 54 56 55 57 57 62 69 78 79 72 80 79 79 80 83 84 84 79 83 80 80 80 75 77 77 75 70
44 67 50 38 31 28 29 29 26 25 27 31 31 33 40 46 46 52 50 50 50 53 54 56 56 58 57 63 69 75 80 77 80 79 78 78 79 79 82 80 78 77 73 64 66 77 82 83 62
55 57 46 48 36 32 29 27 24 24 24 26 28 32 42 48 54 49 50 50 52 54 55 58 58 58 55 65 69 84 81 79 80 81 75 69 71 70 74 72 65 63 58 53 50 55 67 62 61
38 46 55 46 36 29 36 28 28 25 23 25 24 27 39 46 44 45 50 51 54 57 59 60 59 58 56 64 72 83 84 83 84 80 68 61 61 60 63 59 55 61 60 55 49 50 54 57 65
34 52 53 44 38 36 34 32 30 28 28 26 25 25 27 39 50 53 52 54 56 57 61 63 62 59 57 64 74 81 84 88 82 69 56 51 46 43 44 44 42 50 51 44 37 37 39 48 55
37 49 53 51 39 31 27 30 26 31 26 26 27 24 22 35 53 61 60 57 58 59 62 63 64 60 57 59 72 84 81 84 80 62 56 49 42 34 30 29 28 31 33 30 26 29 38 46 41
40 38 45 49 51 52 29 50 31 27 28 27 29 28 24 30 48 62 63 62 59 59 61 65 66 62 58 56 68 75 76 80 68 59 51 48 38 26 22 22 23 26 26 24 25 27 29 44 51
39 36 43 42 37 45 30 51 22 26 25 24 27 31 29 30 35 46 63 60 59 60 63 65 67 65 59 54 62 64 61 60 59 53 51 48 40 34 28 19 20 23 24 27 28 28 27 39 40
38 38 57 63 60 63 40 44 38 34 34 41 38 48 52 52 52 48 49 57 59 61 64 66 69 68 60 55 53 59 60 57 54 51 49 46 40 38 33 24 20 22 22 24 27 32 33 33 33
43 64 82 51 60 58 60 43 32 37 44 45 54 55 54 53 57 57 61 60 60 63 63 65 69 72 63 56 51 51 55 57 53 51 47 39 38 38 35 29 21 22 20 23 28 35 40 38 40
50 71 70 45 71 73 54 48 33 43 46 49 53 55 54 55 58 63 60 58 58 59 62 65 70 71 68 57 53 48 47 48 46 41 38 36 34 34 34 32 24 21 21 21 24 30 41 43 43
40 71 48 60 57 72 67 49 45 47 48 48 54 49 50 53 57 59 58 59 58 60 61 63 67 70 69 64 56 52 47 42 36 32 35 35 33 34 34 31 26 22 20 22 24 26 37 44 44
46 46 48 76 56 54 73 45 71 54 49 55 51 45 41 43 48 57 56 53 52 55 57 62 65 67 66 68 63 57 52 45 39 34 33 33 33 34 36 34 29 28 25 24 25 25 29 39 40
50 56 53 60 75 77 68 63 43 56 57 50 44 38 37 38 44 51 50 45 50 52 53 55 60 62 64 66 68 66 58 49 42 38 33 32 34 35 36 36 34 31 28 25 26 26 28 33 37
55 53 45 63 54 59 61 52 45 52 50 40 34 28 28 27 30 32 30 28 28 37 52 53 52 56 54 56 64 67 62 56 48 39 33 32 33 35 37 37 36 33 31 28 26 25 28 31 34
Wind_Speed
5 6 4 1 4 4 3 5 3 4 5 6 10 14 12 7 4 6 9 8 12 8 10 12 10 10 9 8 7 5 5 4 3 3 3 3 4 4 4 4 4 5 5 5 5 4 4 4 4
7 3 3 2 5 3 5 4 7 4 7 8 9 5 8 6 4 8 6 17 12 10 12 11 10 9 9 9 8 7 5 4 3 3 2 3 3 4 4 4 4 5 5 6 6 6 6 5 6
4 1 3 4 4 5 4 3 9 6 6 4 6 9 5 4 4 4 12 15 12 11 11 11 9 9 8 7 7 5 4 4 3 4 4 4 4 5 5 5 5 6 7 7 7 6 6 7 6
2 3 3 3 6 6 4 7 10 5 6 9 8 8 5 7 4 9 20 18 13 12 12 11 10 9 8 6 5 4 4 3 3 2 3 4 5 6 6 6 7 7 7 8 8 7 7 7 5
4 2 2 3 3 1 4 7 5 7 5 4 4 4 5 8 20 17 19 15 14 12 11 12 10 10 9 8 6 5 4 4 4 6 6 6 6 6 7 8 8 8 9 9 9 9 8 8 7
1 3 3 4 4 4 3 8 7 6 6 4 7 6 4 14 17 12 12 13 14 12 11 10 10 10 10 10 9 7 6 6 7 7 7 7 8 8 7 8 8 8 9 9 10 11 11 10 10
2 4 5 6 7 4 5 7 7 7 6 4 10 5 4 10 16 13 13 12 11 9 9 8 7 7 8 9 10 9 9 8 8 7 8 8 8 9 7 8 10 9 9 10 11 12 13 14 13
3 3 3 3 7 5 5 4 6 9 2 4 5 7 6 10 17 16 13 12 10 10 9 9 8 8 8 6 7 8 10 9 8 8 8 8 6 7 5 6 7 12 12 13 14 15 14 13 14
2 3 2 2 8 6 5 6 3 4 8 5 5 4 12 28 20 17 14 13 12 10 9 9 9 8 7 6 6 7 8 7 7 8 10 8 6 7 8 8 9 11 11 11 9 13 13 13 14
3 3 1 2 2 7 6 8 6 6 5 5 8 12 25 26 20 16 13 12 9 7 8 8 8 8 8 7 6 6 8 10 7 8 8 9 7 8 8 8 8 11 11 9 10 14 12 13 14
3 1 6 6 6 8 6 5 4 11 2 7 12 10 13 20 16 13 12 11 8 5 5 7 7 8 9 7 7 5 8 9 6 7 8 8 6 8 7 7 8 9 10 11 12 12 11 11 11
5 5 4 7 8 5 6 6 6 4 2 9 14 15 11 9 12 16 14 11 7 4 4 5 6 8 9 7 9 6 6 9 9 11 13 10 8 8 7 8 9 9 10 10 12 13 13 13 14
4 1 4 5 8 8 10 7 6 4 6 13 15 13 10 11 13 15 15 11 8 4 3 3 5 8 8 7 9 8 7 7 9 12 17 7 9 11 11 9 10 12 11 13 12 12 12 12 13
5 6 3 7 6 7 7 4 4 2 5 11 11 10 9 12 17 17 14 12 9 6 2 2 4 7 8 6 6 6 5 6 7 10 15 12 12 12 12 11 12 10 13 14 12 13 12 12 13
8 6 6 7 5 4 2 4 2 6 6 9 9 7 8 11 16 14 12 13 10 5 2 2 4 6 7 5 5 5 3 7 12 8 10 12 12 11 10 9 12 11 13 13 10 13 12 12 13
5 5 5 3 4 3 4 3 4 7 9 8 7 7 7 6 14 13 16 13 8 5 3 2 3 4 6 5 3 3 5 7 10 9 6 7 7 9 12 9 13 11 12 12 11 12 12 12 13
1 5 5 2 1 2 1 1 4 6 7 7 7 7 7 7 9 16 13 10 8 7 5 3 3 4 6 5 4 2 0 5 5 8 6 5 6 7 9 10 10 10 10 12 12 10 11 13 16
4 6 5 6 5 3 3 1 6 8 7 9 8 8 8 8 10 17 16 14 11 9 5 3 2 4 5 3 3 4 1 3 5 5 6 5 6 5 4 6 8 8 10 12 13 11 10 16 18
7 6 8 3 2 3 5 4 8 8 6 8 8 9 9 11 17 22 20 18 14 9 6 4 4 4 4 2 1 2 3 3 3 2 5 5 5 5 4 5 7 7 10 12 13 11 12 17 20
3 10 4 3 3 2 6 8 7 9 7 9 10 9 9 6 7 16 23 21 17 11 9 7 5 5 4 2 1 1 3 1 1 1 3 4 5 5 5 6 7 7 8 8 10 12 11 10 17
3 8 6 6 4 1 2 6 5 7 7 7 7 6 6 10 10 9 19 23 17 14 12 8 7 6 5 4 3 3 1 4 6 3 2 2 3 4 4 5 6 6 6 8 10 11 12 11 10
5 2 7 11 4 4 3 3 5 5 5 6 8 7 5 6 6 6 13 18 19 16 12 11 8 7 6 5 6 6 6 6 8 5 3 1 1 2 3 4 4 5 5 6 7 8 10 9 12
4 5 7 4 3 5 2 4 7 2 2 2 4 7 6 3 7 7 15 21 17 14 14 11 8 7 8 8 8 8 7 7 8 7 6 4 3 4 4 4 3 3 4 5 6 7 8 7 7
6 7 8 5 4 3 2 5 5 1 4 2 3 6 6 6 5 6 6 13 14 13 13 11 10 11 11 10 10 11 10 10 10 10 9 7 6 6 5 5 4 4 4 4 4 4 4 5 5
7 6 3 4 3 5 4 2 6 1 2 5 7 5 5 5 4 3 6 8 10 13 13 13 13 13 13 13 13 13 13 13 13 12 11 10 9 10 9 7 6 5 5 4 4 3 3 3 3
3 5 5 6 4 4 4 5 4 4 4 6 7 6 5 4 3 5 7 10 12 14 16 17 17 16 15 16 16 15 15 16 16 14 14 14 13 11 10 9 8 7 7 6 5 4 4 4 4
2 1 3 6 4 4 3 3 4 2 4 5 5 4 4 4 4 6 8 12 15 17 18 19 19 18 17 18 19 19 19 19 18 16 16 16 15 14 13 12 11 10 9 8 7 6 6 6 6
2 3 3 3 3 2 4 3 4 1 4 5 5 4 3 2 3 4 7 11 14 17 18 17 19 20 19 20 21 23 22 21 20 19 21 20 18 17 17 15 14 12 11 10 9 8 7 8 8
2 1 2 4 4 4 3 5 4 6 6 7 5 3 2 3 3 4 7 11 16 17 17 18 18 19 21 21 22 24 25 24 23 23 23 23 21 20 20 19 17 16 15 13 12 11 10 10 10
1 2 4 4 3 1 3 4 2 8 8 6 4 4 4 4 4 3 7 12 14 11 18 20 20 20 20 20 22 24 24 25 27 27 27 25 25 24 24 23 22 20 18 17 16 15 14 14 14
Wind_Direction
188 151 298 327 75 70 262 255 142 99 66 342 63 82 101 60 38 129 153 105 118 93 100 91 93 93 88 86 79 71 68 68 58 64 33 12 9 8 9 9 7 4 355 342 335 358 343 296 288
161 152 252 98 99 113 258 240 104 65 143 129 76 60 57 56 60 110 105 111 102 104 103 93 93 92 89 86 82 72 60 50 44 31 19 7 347 331 333 332 334 336 331 338 328 317 313 321 263
176 201 99 133 143 182 216 153 135 125 94 77 93 36 73 79 96 96 111 114 109 97 97 91 88 83 76 74 73 73 76 61 32 12 344 326 319 315 314 307 301 303 310 314 321 321 314 309 269
203 46 8 123 194 245 163 158 125 108 55 58 107 68 62 11 91 117 115 105 104 86 78 79 79 78 73 64 58 53 41 24 4 39 359 334 322 314 308 304 307 305 306 305 305 305 312 311 289
249 81 133 167 227 268 100 130 108 90 91 92 97 116 86 52 107 108 104 110 102 87 76 66 67 67 61 50 38 29 20 8 354 348 344 338 329 311 308 304 303 302 299 300 298 298 299 301 299
30 110 102 180 191 97 92 136 118 102 94 139 77 97 119 122 110 117 122 113 110 108 95 78 62 59 53 37 23 13 9 359 352 348 342 334 329 327 324 321 306 296 295 297 299 301 301 295 291
155 116 197 170 164 101 160 143 113 116 111 78 137 86 128 124 121 124 116 109 103 94 87 80 69 60 47 37 19 25 16 14 3 356 346 340 341 333 333 336 325 318 311 302 303 301 300 297 293
146 123 201 167 171 172 161 102 111 107 115 110 127 159 176 181 140 129 121 105 91 77 67 60 53 52 70 41 22 39 27 25 13 5 347 335 336 7 343 326 318 321 316 306 305 305 299 295 293
57 80 196 176 158 177 168 103 18 45 87 58 12 124 147 146 143 137 131 115 93 71 55 47 45 43 48 28 48 42 27 8 15 2 339 340 328 336 316 318 322 323 312 314 327 332 312 303 303
94 119 316 285 268 158 131 102 125 88 85 52 65 79 127 141 149 148 141 117 98 75 50 41 38 33 28 32 38 39 20 12 12 3 357 351 353 348 327 318 337 350 350 343 331 333 308 315 316
184 109 293 341 346 121 118 101 93 123 122 178 159 151 142 148 157 146 133 123 111 85 52 37 32 22 17 21 16 27 27 21 2 338 342 345 356 11 358 351 351 354 356 359 348 337 342 345 335
135 45 17 349 327 103 108 118 70 46 222 154 151 152 149 157 157 141 132 131 130 105 57 33 23 16 17 16 13 21 24 17 350 340 333 332 352 357 356 349 353 349 356 356 360 353 345 337 336
94 81 49 8 19 55 83 65 126 45 85 118 135 146 156 156 147 146 141 139 141 126 74 30 9 13 17 22 20 30 16 360 356 2 4 9 19 7 3 15 23 17 2 3 356 358 359 352 341
131 97 64 31 31 43 89 67 91 271 127 119 135 153 159 140 138 138 145 150 152 151 138 5 15 13 17 24 25 32 3 4 345 19 21 34 22 16 21 19 31 19 22 15 360 0 358 1 349
140 93 53 15 7 56 49 27 123 169 120 129 144 147 144 152 151 158 168 156 161 175 158 17 4 354 7 16 45 21 6 21 34 35 35 27 22 19 14 2 16 20 23 16 20 13 3 359 359
90 74 106 314 6 354 39 223 175 173 142 160 166 163 153 154 165 165 162 168 180 170 177 295 334 344 353 12 48 24 345 11 41 40 29 30 12 21 17 28 22 18 19 8 6 5 359 355 342
355 151 113 117 34 116 64 197 156 180 153 182 193 183 166 166 166 169 179 186 185 185 196 241 314 332 352 20 51 353 340 30 51 5 360 358 17 28 39 36 22 29 19 22 22 26 16 2 353
167 109 94 143 215 106 161 149 174 190 178 192 204 199 191 190 202 186 181 177 176 191 222 250 283 315 350 21 10 161 66 48 59 351 8 11 31 37 40 33 37 31 26 27 31 31 42 23 4
148 119 111 101 171 121 200 193 208 202 194 204 216 216 209 205 205 195 187 192 197 211 227 236 274 311 333 353 92 171 51 40 75 323 10 18 38 37 55 43 38 38 31 28 25 28 33 24 17
142 118 83 70 152 127 190 246 228 191 208 202 206 214 214 212 184 186 187 185 195 210 221 228 256 284 304 293 239 279 320 125 141 25 29 21 45 51 46 42 42 36 29 27 27 28 35 36 29
127 146 164 147 139 346 160 304 235 235 205 201 218 211 201 199 189 177 183 189 191 202 205 232 239 269 284 283 207 198 158 163 171 193 285 357 12 37 38 34 30 28 20 23 24 28 32 26 43
95 256 132 131 104 167 126 251 290 238 225 196 210 211 200 128 148 179 188 192 200 207 207 212 240 261 262 253 210 212 217 195 194 223 214 241 319 2 6 13 15 11 10 17 29 33 39 38 33
144 137 127 127 100 97 314 76 273 62 139 168 173 178 197 144 166 181 201 208 206 202 201 216 245 251 247 242 222 212 206 200 200 208 220 235 266 305 325 339 342 345 355 14 24 35 42 46 51
143 91 50 55 69 48 248 130 290 244 177 132 40 83 110 101 87 85 140 183 193 198 201 225 244 248 244 238 229 220 214 208 207 215 225 232 251 272 291 306 307 316 327 351 12 23 30 40 45
50 59 31 24 16 206 304 64 234 93 73 138 122 125 131 121 118 146 152 173 183 198 216 238 242 243 241 238 232 226 223 222 225 227 236 239 243 251 268 280 280 288 308 320 329 338 354 356 5
74 137 149 164 169 216 358 226 262 157 122 117 107 129 135 161 192 209 214 216 222 228 234 235 237 246 241 239 239 234 233 232 234 236 241 244 248 255 263 272 278 286 293 299 302 301 301 308 309
181 37 169 108 45 79 217 267 351 76 102 115 127 144 193 207 208 227 231 234 238 240 240 239 240 246 245 247 243 241 241 240 241 244 245 249 250 251 258 263 265 269 274 278 283 284 280 288 297
118 155 65 3 125 190 296 193 224 167 162 133 100 123 135 158 207 244 245 247 249 248 249 246 246 250 260 252 247 246 249 250 250 250 247 249 251 250 250 255 262 263 265 266 267 270 273 272 281
93 16 59 118 127 154 147 259 218 179 156 140 161 169 208 241 270 293 307 300 274 259 246 244 245 250 252 250 249 247 247 249 256 258 257 255 255 252 251 252 252 252 254 257 259 263 266 267 271
187 162 143 119 219 181 139 256 159 149 156 141 105 65 28 58 62 50 16 2 1 315 261 248 248 246 256 258 251 250 253 251 252 257 260 259 257 256 255 256 255 254 251 250 251 254 254 255 253